Regional Weather Roundup
Issued by NWS

Home | Current Version | Previous Version | Graphics & Text | Print | Product List | Glossary On
Versions: 1 2 3 4 5 6 7 8 9 10 11 12 13 14 15 16 17 18 19 20 21 22 23 24 25 26 27 28 29 30 31 32 33 34 35 36 37 38 39 40 41 42 43 44 45 46 47 48 49 50
000
ASUS45 KTFX 030310
RWRMT
MONTANA REGIONAL WEATHER ROUNDUP
NATIONAL WEATHER SERVICE GREAT FALLS MT
900 PM MDT THU JUL 02 2015

NOTE: "FAIR" INDICATES FEW OR NO CLOUDS BELOW 12000 FEET WITH NO
SIGNIFICANT WEATHER AND/OR OBSTRUCTIONS TO VISIBILITY.

MTZ001>007-043-030400-
WEST OF THE DIVIDE

CITY           SKY/WX    TMP DP  RH WIND       PRES   REMARKS
KALISPELL      CLEAR     85  52  32 SW3       29.94F
MISSOULA       CLEAR     86  46  24 N9        29.95S
BUTTE          CLEAR     79  43  27 E14       30.14R
MULLAN PASS    CLEAR     73  39  29 NW6       30.19F
DEER LODGE       N/A     79  48  34 W3        30.10S
EUREKA           N/A     90  45  20 CALM      29.93F
HAMILTON         N/A     82  54  36 S3        29.98S
PLAINS           N/A     91  47  22 W6        29.93S
RONAN            N/A     81  59  47 N3        30.01S
THOMPSON FALLS   N/A     90  46  21 SW5       29.96R
$$

MTZ008-052>055-030400-
SOUTHWEST MONTANA

CITY           SKY/WX    TMP DP  RH WIND       PRES   REMARKS
BOZEMAN        CLEAR     77  49  37 SE12      30.06S
DILLON         CLEAR     75  51  43 NE8       30.07S
W YELLOWSTONE  CLEAR     73  41  31 N5        30.21R
$$

MTZ009-010-012-014-046-048-049-054-030400-
EAST SLOPES AND CENTRAL MONTANA

CITY           SKY/WX    TMP DP  RH WIND       PRES   REMARKS
CUT BANK       CLEAR     76  49  38 S7        30.05S
GREAT FALLS    CLOUDY    80  47  31 E14       30.05S
MALMSTROM AFB  PTCLDY    77  49  38 NE9       30.05S
HELENA         CLEAR     85  47  26 N7        30.01R
CONRAD           N/A     74  62  66 NE3       30.08F
$$

MTZ011-013-016-021-045-047-050-051-030400-
NORTH CENTRAL MONTANA

CITY           SKY/WX    TMP DP  RH WIND       PRES   REMARKS
HAVRE          CLEAR     76  55  48 SE9       30.01F HAZE
LEWISTOWN      CLEAR     72  53  51 E8        30.12S
CHINOOK          N/A     75  57  53 E7        30.03R
FORT BENTON      N/A     79  54  41 NE3       30.03F
$$

MTZ017>020-022>027-061-062-030400-
NORTHEAST MONTANA

CITY           SKY/WX    TMP DP  RH WIND       PRES   REMARKS
GLASGOW        CLEAR     73  57  57 NE8       30.02S HAZE
JORDAN           N/A     71  57  61 N5        30.05R
SIDNEY         CLEAR     72  61  68 W6        30.01R
WOLF POINT     CLEAR     74  63  68 N9        30.01S HAZE
MALTA            N/A     74  57  55 CALM      30.01R
PLENTYWOOD       N/A     70  57  64 N7        30.02S
SCOBEY           N/A     68  57  67 CALM      30.04R
$$

MTZ028>42-056>058-030400-
SOUTHCENTRAL AND SOUTHEAST MONTANA

CITY           SKY/WX    TMP DP  RH WIND       PRES   REMARKS
BAKER          CLEAR     69  59  70 CALM      30.06S HAZE
BILLINGS       CLEAR     77  50  38 E7        30.10R
LIVINGSTON     CLEAR     76  49  38 E12       30.10R
MILES CITY     CLEAR     76  54  46 N8        30.04R
FORSYTH          N/A     75  55  50 CALM      30.05R
LAUREL           N/A     75  49  39 N1        30.08R
ROUNDUP          N/A     75  50  41 NE3       30.01S
$$

REGIONAL REPORTS...DAKOTAS

CITY           SKY/WX    TMP DP  RH WIND       PRES   REMARKS
WILLISTON      MOCLDY    76  63  64 NE7       30.00R
MINOT          CLOUDY    71  64  78 W8        29.96R HAZE
DICKINSON      CLEAR     71  59  65 NE5       30.02R HAZE
BEACH          FAIR      66  66 100 CALM      30.06S FOG
CROSBY         FAIR      64  64 100 NW6       30.01S FOG
BISMARCK       CLOUDY    72  64  76 CALM      29.98R HAZE
GRAND FORKS    CLOUDY    69  65  86 SW6       29.88S
FARGO          PTCLDY    67  55  65 S8        29.93R
BUFFALO SD       N/A     71  58  63 NE6       30.00S
RAPID CITY     CLEAR     67  59  75 NE9       30.07R
$$

REGIONAL REPORTS...WYOMING/IDAHO/WASHINGTON

CITY           SKY/WX    TMP DP  RH WIND       PRES   REMARKS
GILLETTE       CLEAR     65  53  65 CALM      30.13S
SHERIDAN       PTCLDY    72  55  55 NW5       30.12R
BUFFALO WY     PTCLDY    69  54  58 NW8       30.19R
CODY           PTCLDY    73  50  43 N6        30.16S
YELLOWSTONE LA   N/A     68  37  32 VRB3      30.33R
IDAHO FALLS    CLEAR     78  56  46 CALM      30.02S
SALMON         CLEAR     84  45  24 N10       29.93R
BOISE          CLEAR     98  42  14 N7        29.86S HX  94
SPOKANE        PTCLDY    94  40  15 NW9       29.92S HX  90
$$

REGIONAL REPORTS...ALBERTA

CITY           SKY/WX    TMP DP  RH WIND       PRES   REMARKS
EDMONTON       CLEAR     81  50  34 S6        29.92F
CALGARY        PTCLDY    75  55  50 SE13      30.02F
LETHBRIDGE     PTCLDY    73  59  60 E7        30.00F
MEDICINE HAT   PTCLDY    79  55  44 S6        29.98F
WATERTON GATE    N/A     73  57  56 NW2         N/A
CARDSTON         N/A     77  63  61 SE2         N/A
$$

REGIONAL REPORTS...SASKATCHEWAN

CITY           SKY/WX    TMP DP  RH WIND       PRES   REMARKS
SWIFT CURRENT  CLEAR     72  59  64 SW5       30.03F HAZE
REGINA         MOCLDY    68  63  83 NW5       30.00R SMOKE
SASKATOON      MOCLDY    73  57  56 W5        29.98S
CYPRESS HILLS    N/A     66  50  55 SE5         N/A
VAL MARIE        N/A     66  57  72 NE5         N/A
ROCKGLEN         N/A     66  59  77 N1          N/A
ASSINIBOIA       N/A    N/A N/A N/A S5          N/A
$$


USA.gov is the U.S. government's official web portal to all federal, state and local government web resources and services.